Regional Weather Roundup
Issued by NWS Goodland, KS

Home | Current Version | Previous Version | Graphics & Text | Print | Product List | Glossary On
Versions: 1 2 3 4 5 6 7 8 9 10 11 12 13 14 15 16 17 18 19 20 21 22 23 24 25 26 27 28 29 30 31 32 33 34 35 36 37 38 39 40 41 42 43 44 45 46 47 48 49 50
000
ASUS43 KGLD 270108
RWRGLD

GOODLAND FORECAST AREA HOURLY WEATHER ROUNDUP
NATIONAL WEATHER SERVICE GOODLAND KS
700 PM MDT THU MAY 26 2016

...OFFICIAL OBSERVATIONS...

CITY           SKY/WX    TMP DP  RH WIND       PRES   REMARKS
GOODLAND KS    NOT AVBL
HILL CITY KS   CLOUDY    68  58  70 NE12      29.63R
IMPERIAL NEB   CLOUDY    65  47  52 NE17G23   29.71S
MCCOOK NEB     CLOUDY    65  59  81 NE13      29.69R THUNDER
AKRON CO       TSTM      49  46  90 W18       29.87R
BURLINGTON CO  LGT RAIN  50  44  80 NW45G60   29.79S
LIMON CO       RAIN      43  41  93 NW8       30.00R FOG
$$

...UNOFFICIAL OBSERVATIONS...

CITY           SKY/WX    TMP DP  RH WIND       PRES   REMARKS
GOVE KS          N/A     75  32  20 MISG        N/A
SHARON SPRINGS   N/A     54  49  85 NW25G35     N/A
YUMA CO          N/A     54  47  77 NW20        N/A
$$



USA.gov is the U.S. government's official web portal to all federal, state and local government web resources and services.